Location: Rosthern
(52.6623°N, 106.3318°W)
Time: 23:01:50
(UTC-06:00)

ISS - Visible Passes

Search period start: 07 December 2025 00:00
Search period end: 17 December 2025 00:00
Orbit: 416 x 421 km, 51.6° (Epoch: 07 December)

Date Brightness Start Highest point End Pass type
(mag) Time Alt. Az. Time Alt. Az. Time Alt. Az.
11 Dec -0.1 08:00:43 10° SSE 08:01:39 11° SE 08:02:37 10° ESE visible
13 Dec -1.0 07:59:29 10° SSW 08:02:07 21° SSE 08:04:46 10° E visible
14 Dec -0.8 07:12:16 10° S 07:14:20 15° SE 07:16:25 10° ESE visible
15 Dec -0.5 06:25:48 10° SSE 06:26:34 11° SE 06:27:20 10° SE visible
15 Dec -2.3 07:59:29 10° SW 08:02:38 38° SSE 08:05:48 10° E visible
16 Dec -1.8 07:11:47 10° SSW 07:14:43 28° SSE 07:17:41 10° E visible
